Погода в Мархоткине

Россия / Смоленская область     54°40′10″N   33°32′06″E
темп.,
°C
ветер,
м/с
пор.,
м/с
влажн.,
%
обл.,
%
осадки,
мм/ч
давл.,
гПа
погр.,
м
26 октября, вт
вт2600:000юз4148072 0.0 1028387
03:00+1юз51476100 0.0 1028414
06:000юз41477100 0.0 1026360
09:00+1юз51571100 0.0 1025458
12:00+5юз61557100 0.0 1023600
15:00+6юз61454100 0.0 1022695
18:00+4юз51562100 0.0 1021568
21:00+4юз51562100 0.0 1020546
27 октября, ср
ср2700:00+4юз51463100 0.0 1019502
03:00+4ююз51465100 0.0 1018442
06:00+3юз51467100 0.0 1016477
09:00+4юз51370100 0.0 1015535
12:00+4зюз51389100 0.4 1015559
15:00+7з4118884 0.4 1015764
18:00+6зюз41081100 0.1 1016415
21:00+6зюз31181100 0.1 1016538
28 октября, чт
чт2800:00+6юз41289100 0.0 1015428
03:00+6юз51494100 0.8 1013678
06:00+8зюз61495100 0.8 1011762
09:00+9з51394100 1.8 1011756
12:00+10з51294100 0.4 1012791
15:00+12зсз6117961 0.5 10131247
18:00+9сз51179100 0.1 1017776
21:00+8ссз5985100 0.1 1020797
29 октября, пт
пт2900:00+6ссв3679100 0.1 1023482
03:00+6св2374100 0.1 1026110
06:00+6всв1172100 0.0 102821
09:00+6вюв237661 0.0 1029113
12:00+8ю24668 0.0 1030805
15:00+9ююз34635 0.0 1030851
18:00+5ююз258395 0.0 1030106
21:00+4ююз388988 0.0 1031168
30 октября, сб
сб3000:00+4ююз3892100 0.0 1031197
03:00+3ююз3109355 0.0 1031228
06:00+3ююз3109367 0.0 1031240
09:00+3ююз3129064 0.0 1031324
12:00+8ююз5117432 0.0 1030500
15:00+9ююз5127260 0.0 1028659
18:00+7ю5138410 0.0 1027475
21:00+7ююз515866 0.0 1027526